Location: Balsareny
(41.8670°N, 1.8830°E)
Time: 08:00:16
(UTC+01:00)

X-37B - Visible Passes

Search period start: 27 January 2021 00:00
Search period end: 06 February 2021 00:00
Orbit: 383 x 391 km, 45.1° (Epoch: 22 January)

Date Brightness Start Highest point End Pass type
(mag) Time Alt. Az. Time Alt. Az. Time Alt. Az.
27 Jan 0.7 19:44:08 10° WNW 19:47:04 65° NNW 19:47:04 65° NNW visible
28 Jan 0.9 18:45:44 10° WNW 18:48:52 52° N 18:51:32 13° E visible
28 Jan 3.1 20:22:26 10° WNW 20:23:50 23° W 20:23:50 23° W visible
29 Jan 0.6 19:24:00 10° WNW 19:27:11 80° SSW 19:28:24 34° ESE visible
30 Jan 2.4 20:02:30 10° W 20:05:16 27° SSW 20:05:25 27° SSW visible
31 Jan 1.5 19:03:56 10° WNW 19:07:00 47° SSW 19:10:04 10° SE visible
01 Feb 3.5 19:42:57 10° WSW 19:44:56 15° SW 19:46:54 10° S visible
02 Feb 2.8 18:44:00 10° W 18:46:45 27° SSW 18:49:30 10° SSE visible
